User: anonymous   Login
Location: Unspecified
(0.0000°N, 0.0000°E)
Time: 00:15:35
(UTC+00:00)
Language:

YAOGAN-40 01B - Orbit

View from above orbital plane
View from above orbital plane
View from above satellite
View from above satellite

Ground track
Ground track

The orbit is defined by the following mean orbital elements,

1 57832U          26145.62529264 +.00000000 +00000-0 +75935-4 0 00005
2 57832  85.9898 270.0562 0001776 101.5816 258.5566 14.12442999    01
Epoch (UTC): 25 May 2026 15:00:25
Eccentricity: 0.0001776
inclination: 85.9898°
perigee height: 850 km
apogee height: 852 km
right ascension of ascending node: 270.0562°
argument of perigee: 101.5816°
revolutions per day: 14.12442999
mean anomaly at epoch: 258.5566°

The dashed part of the orbit path shows where the satellite is in the earth's shadow,  

DLR